Home   Weather   Bodø   Past weeks

Flag for Norway Past Weather in Bodø, Norway — Yesterday and Last 2 Weeks

Now
37 °F

Sprinkles. Partly cloudy.


Feels Like: 27 °F
Forecast: 32 / 36 °F
Wind: 20 mph from West

Location: Bodo Vi

Current Time: Jan 19, 2017 at 1:19:48 am

Latest Report: Jan 19, 2017 at 12:50 am


Visibility: N/A

Pressure: 29.65 "Hg

Humidity: 93%

Dew Point: 36 °F

Location of BodøLocation

Past Weather in Bodø — Graph

°F

Bodø Temperature Yesterday

Maximum temperature yesterday: 46 °F (at 11:50 am)
Minimum temperature yesterday: 37 °F (at 4:50 am)
Average temperature yesterday: 41 °F

High & Low Weather Summary for the Past Weeks

 TemperatureHumidityPressure
High46 °F (Jan 18, 11:50 am)100% (Jan 6, 9:50 pm)30.36 "Hg (Jan 6, 9:50 pm)
Low10 °F (Jan 4, 7:20 pm)53% (Jan 4, 6:20 am)28.65 "Hg (Jan 11, 9:20 pm)
Average33 °F80%29.53 "Hg
* Reported Jan 3 11:20 pm — Jan 18 11:50 pm, Bodø, Weather by CustomWeather, © 2017

Note: Actual official high and low records may vary slightly from our data, if they occured in-between our weather recording intervals... More about our weather records

Advertising

Bodø Weather History for the Previous 24 Hours

Scroll right to see more
 ConditionsComfort  
Time TempWeatherWind HumidityBarometerVisibility
11:50 pm
Wed, Jan 18
39 °FPartly cloudy.18 mph81%29.65 "HgN/A
11:20 pm39 °FPartly cloudy.21 mph81%29.65 "HgN/A
10:50 pm39 °FPassing clouds.23 mph87%29.65 "HgN/A
10:20 pm39 °FPassing clouds.18 mph87%29.62 "HgN/A
9:50 pm39 °FPassing clouds.20 mph87%29.59 "HgN/A
9:20 pm41 °FPassing clouds.22 mph81%29.56 "HgN/A
8:50 pm41 °FPassing clouds.28 mph81%29.50 "HgN/A
8:20 pm41 °FPassing clouds.35 mph87%29.45 "HgN/A
7:50 pm43 °FScattered showers. Partly cloudy.39 mph87%29.39 "HgN/A
7:20 pm43 °FSprinkles. Partly cloudy.39 mph87%29.36 "HgN/A
6:50 pm43 °FMixture of precip. Partly cloudy.43 mph93%29.36 "HgN/A
6:20 pm45 °FScattered showers. Partly cloudy.41 mph87%29.33 "HgN/A
5:50 pm43 °FRain showers. Partly cloudy.39 mph93%29.33 "Hg4 mi
5:20 pm45 °FScattered showers. Partly cloudy.41 mph87%29.36 "HgN/A
4:50 pm45 °FScattered showers. Partly cloudy.39 mph93%29.36 "HgN/A
4:20 pm45 °FRain showers. Partly cloudy.40 mph93%29.39 "Hg4 mi
3:50 pm45 °FRain showers. Partly cloudy.43 mph100%29.39 "Hg3 mi
3:20 pm46 °FScattered showers. Partly cloudy.45 mph93%29.39 "Hg4 mi
2:50 pm46 °FScattered showers. Partly cloudy.40 mph93%29.39 "HgN/A
2:20 pm46 °FSprinkles. Passing clouds.38 mph87%29.42 "HgN/A
1:50 pm46 °FSprinkles. Broken clouds.35 mph87%29.45 "HgN/A
1:20 pm46 °FMixture of precip. Broken clouds.38 mph87%29.45 "HgN/A
12:50 pm46 °FSprinkles. Partly sunny.38 mph87%29.47 "HgN/A
12:20 pm46 °FSprinkles. Partly sunny.38 mph93%29.50 "HgN/A
11:50 am46 °FLight rain. Partly sunny.38 mph93%29.50 "HgN/A
11:20 am39 °FLight rain. Partly sunny.21 mph93%29.53 "HgN/A
10:50 am39 °FLight rain. Partly sunny.14 mph93%29.56 "Hg5 mi
10:20 am39 °FLight rain. Partly sunny.13 mph93%29.59 "HgN/A
9:50 am37 °FLight rain. Passing clouds.20 mph93%29.62 "HgN/A
9:20 am39 °FLight rain. Passing clouds.14 mph81%29.65 "HgN/A
8:50 am39 °FLight rain. Partly cloudy.14 mph75%29.68 "HgN/A
8:20 am37 °FLight rain. Partly cloudy.17 mph81%29.68 "HgN/A
7:50 am37 °FPartly cloudy.14 mph81%29.71 "HgN/A
7:20 am37 °FLight rain. Partly cloudy.13 mph81%29.74 "HgN/A
6:50 am37 °FLight rain. Partly cloudy.8 mph81%29.80 "HgN/A
6:20 am37 °FLight rain. Passing clouds.9 mph81%29.83 "HgN/A
5:50 am37 °FLight rain. Passing clouds.10 mph81%29.86 "HgN/A
5:20 am39 °FLight rain. Partly cloudy.18 mph75%29.89 "HgN/A
4:50 am37 °FPartly cloudy.9 mph87%29.92 "HgN/A
4:20 am39 °FPartly cloudy.22 mph81%29.92 "HgN/A
3:50 am41 °FPartly cloudy.21 mph66%29.95 "HgN/A
2:50 am41 °FPassing clouds.23 mph70%29.98 "HgN/A
1:50 am41 °FPassing clouds.23 mph66%29.98 "HgN/A
Weather by CustomWeather, © 2017

See weather overviewHow to use our weather pages